[[{"header":{"parameterUnit":"m.s-1","parameterCategory":1,"la1":30.2991,"la2":30.254,"lo1":-89.0895,"lo2":-89.0444,"dy":0.0017,"dx":0.0017,"nx":28,"ny":28,"refTime":"2024-06-16T09:00:00:Z","depth":0,"parameterNumber":2,"parameterNumberName":"U-component_of_WINDS"},"data":[0,0,0,0,0,0,0,0,0,0,0,0,0,0,0,0,0,0,0,0,0,0,0,0,0,0,0,0,0,0,0,0,0,0,0,0,0,0,0,0,0,0,0,0,0,0,0,0,0,0,0,0,0,0,0,0,0,0,-5.1234,-5.1234,0,-5.1288,-5.1289,-5.129,-5.1194,-5.1191,-5.1188,-5.1184,-5.1238,-5.1243,-5.1247,0,0,0,0,0,0,0,0,0,0,0,0,0,-5.1043,-5.1047,-5.1234,-5.1234,-5.1235,-5.1288,-5.1289,-5.129,-5.1195,-5.1191,-5.1187,-5.1183,-5.1237,-5.1242,-5.1247,0,0,0,0,0,0,0,0,0,0,0,0,0,-5.1115,-5.1049,-5.1233,-5.1194,-5.1191,-5.1288,-5.1289,-5.129,-5.1195,-5.1191,-5.1186,-5.1181,-5.1235,-5.1242,-5.1248,-5.1386,0,0,-5.1269,-5.1271,0,0,0,0,0,0,0,0,-5.1111,-5.1122,-5.1199,-5.1197,-5.1194,-5.1229,-5.1242,-5.1322,-5.1197,-5.1194,-5.1184,-5.1179,-5.1239,-5.1245,-5.1266,-5.1388,-5.1391,-5.1269,-5.1273,-5.1276,-5.1278,0,0,0,0,0,0,0,-5.1106,-5.1119,-5.1255,-5.12,-5.1197,-5.1172,-5.1177,-5.1256,-5.1243,-5.1193,-5.1187,-5.1195,-5.1237,-5.126,-5.1267,-5.1392,-5.1269,-5.1275,-5.1279,-5.1282,-5.1627,-5.1632,0,0,0,0,0,0,-5.1106,-5.1116,-5.1253,-5.1257,-5.114,-5.118,-5.1185,-5.1223,-5.1242,-5.124,-5.1199,-5.119,-5.1251,-5.1259,-5.1268,-5.1428,-5.1276,-5.1282,-5.1286,-5.1622,-5.1628,-5.1634,0,0,0,0,0,0,-5.1103,-5.112,-5.1251,-5.1184,-5.1199,-5.1188,-5.1231,-5.1226,-5.1249,-5.1246,-5.1242,-5.1225,-5.1247,-5.1259,-5.1357,-5.1429,-5.1285,-5.1291,-5.1616,-5.1624,-5.1631,-5.1751,0,0,0,0,0,0,-5.1098,-5.1119,-5.1172,-5.1186,-5.1203,-5.134,-5.1236,-5.1231,-5.1261,-5.125,-5.1269,-5.1268,-5.1244,-5.1348,-5.1364,-5.1435,-5.1296,-5.1609,-5.162,-5.1629,-5.1741,-5.1762,-5.178,0,0,0,0,0,-5.1091,-5.1203,-5.1175,-5.1192,-5.1269,-5.1345,-5.1354,-5.1326,-5.1268,-5.132,-5.1317,-5.1267,-5.1419,-5.1358,-5.1376,-5.1451,-5.1605,-5.1617,-5.1628,-5.1732,-5.1758,-5.178,0,0,0,0,0,0,-5.1197,-5.1205,-5.1173,-5.1294,-5.1319,-5.1328,-5.1393,-5.1355,-5.1397,-5.1385,-5.1347,-5.1352,-5.1457,-5.1464,-5.1396,-5.1584,-5.1502,-5.1518,-5.1575,-5.16,-5.1619,-5.1614,-5.1302,0,0,0,0,0,-5.1234,-5.1296,-5.1299,-5.1405,-5.1419,-5.1405,-5.1437,-5.1412,-5.1437,-5.1447,-5.1452,-5.1477,-5.153,-5.1566,-5.1615,-5.1742,-5.1744,-5.1802,-5.1822,-5.1839,-5.1852,-5.1917,-5.1942,-5.1672,-5.1672,-5.1672,0,0,-5.1312,-5.1324,-5.1365,-5.1426,-5.1443,-5.1506,-5.1414,-5.1485,-5.1531,-5.1458,-5.155,-5.1555,-5.158,-5.1693,-5.1743,-5.1702,-5.1927,-5.1853,-5.1867,-5.1871,-5.1932,-5.1957,-5.198,-5.168,-5.1679,-5.1678,0,0,-5.1484,-5.1501,-5.159,-5.1609,-5.1636,-5.1626,-5.1647,-5.1663,-5.1663,-5.1755,-5.1701,-5.1755,-5.1848,-5.1868,-5.189,-5.2071,-5.2025,-5.2088,-5.2191,-5.2255,-5.2276,-5.2295,-5.2357,-5.238,-5.2102,-5.2102,-5.2102,0,-5.1577,-5.1671,-5.164,-5.1715,-5.1742,-5.168,-5.1768,-5.1789,-5.183,-5.185,-5.1804,-5.1919,-5.1932,-5.2047,-5.2092,-5.2113,-5.2134,-5.2084,-5.2276,-5.2294,-5.2311,-5.2369,-5.2393,-5.2109,-5.2109,-5.2108,-5.2107,0,-5.1781,-5.1847,-5.1916,-5.1958,-5.1994,-5.2075,-5.2056,-5.2096,-5.2069,-5.2063,-5.2157,-5.2171,-5.2221,-5.2247,-5.2222,-5.2359,-5.2332,-5.2282,-5.2198,-5.2345,-5.2398,-5.2421,-5.212,-5.2117,-5.2115,-5.2113,0,0,-5.202,-5.2045,-5.207,-5.2087,-5.2113,-5.2163,-5.2241,-5.229,-5.2324,-5.2356,-5.2418,-5.2499,-5.2452,-5.2478,-5.2454,-5.2512,-5.265,-5.2454,-5.2454,-5.2487,-5.2799,-5.2835,-5.2861,-5.2622,-5.2626,-5.263,-5.2796,0,-5.2189,-5.2324,-5.2299,-5.243,-5.2489,-5.2431,-5.2499,-5.2521,-5.2518,-5.2567,-5.2564,-5.262,-5.2556,-5.2571,-5.2625,-5.2622,-5.2712,-5.261,-5.2678,-5.2681,-5.267,-5.289,-5.2928,-5.3084,-5.2818,-5.2821,-5.2824,0,-5.2404,-5.2444,-5.2581,-5.2596,-5.2619,-5.2681,-5.2723,-5.2772,-5.2796,-5.2789,-5.2818,-5.2784,-5.286,-5.2779,-5.2882,-5.2813,-5.284,-5.2843,-5.2848,-5.2851,-5.2759,-5.2895,-5.3134,-5.3156,-5.2857,-5.2855,-5.2852,0,-5.2561,-5.2648,-5.2741,-5.2758,-5.2779,-5.2823,-5.2834,-5.2853,-5.2884,-5.2921,-5.294,-5.2986,-5.301,-5.3046,-5.3025,-5.2968,-5.3131,-5.3048,-5.3126,-5.3126,-5.316,-5.3158,-5.3403,-5.3183,-5.3183,-5.3182,-5.3182,0,-5.275,-5.2836,-5.2811,-5.2868,-5.2961,-5.2932,-5.3025,-5.3028,-5.3046,-5.3101,-5.3055,-5.3108,-5.3078,-5.3128,-5.3112,-5.3199,-5.3211,-5.3206,-5.32,-5.3209,-5.3209,-5.3223,-5.321,-5.3189,-5.3187,-5.3186,-5.3185,0,-5.294,-5.2927,-5.3023,-5.3036,-5.304,-5.3109,-5.3118,-5.317,-5.3164,-5.3235,-5.325,-5.324,-5.3297,-5.328,-5.3341,-5.333,-5.3439,-5.3421,-5.3431,-5.3425,-5.3503,-5.3494,-5.3763,-5.3796,-5.3558,-5.356,-5.3562,0,-5.306,-5.3124,-5.3143,-5.3177,-5.3191,-5.3247,-5.3278,-5.3252,-5.3286,-5.3318,-5.3366,-5.3419,-5.3459,-5.3552,-5.355,-5.3596,-5.3577,-5.3668,-5.3583,-5.3589,-5.3574,-5.3569,-5.3574,-5.3683,-5.3686,-5.3688,-5.369,0,-5.3274,-5.3264,-5.3311,-5.3356,-5.3395,-5.3429,-5.3458,-5.3489,-5.3464,-5.3505,-5.3562,-5.3594,-5.3657,-5.3709,-5.3751,-5.376,-5.3721,-5.3718,-5.3737,-5.3745,-5.3746,-5.3743,-5.3473,-5.3711,-5.3709,-5.3707,-5.3706,-5.3705,-5.343,-5.3483,-5.3505,-5.3558,-5.3578,-5.3607,-5.3655,-5.3656,-5.3704,-5.3752,-5.3734,-5.38,-5.3821,-5.3874,-5.389,-5.394,-5.3904,-5.3934,-5.3941,-5.3948,-5.3956,-5.3742,-5.3948,-5.3947,-5.3946,-5.3946,-5.3945,0,-5.3638,-5.3649,-5.3699,-5.3742,-5.3784,-5.3745,-5.3775,-5.3812,-5.3871,-5.3895,-5.3936,-5.4001,-5.4052,-5.4054,-5.4101,-5.414,-5.4123,-5.4153,-5.4148,-5.415,-5.3986,-5.3963,-5.4166,-5.4166,-5.4166,-5.4166,-5.4166,-5.4166,-5.3751,-5.3839,-5.3832,-5.3929,-5.3939,-5.4003,-5.4023,-5.4049,-5.4068,-5.4143,-5.4185,-5.4186,-5.4201,-5.4249,-5.4293,-5.4292,-5.431,-5.4346,-5.4339,-5.4184,-5.4162,-5.4141,-5.4119,-5.4351,-5.4352,-5.4498,-5.4499,-5.45]},{"header":{"parameterUnit":"m.s-1","parameterCategory":1,"la1":30.2991,"la2":30.254,"lo1":-89.0895,"lo2":-89.0444,"dy":0.0017,"dx":0.0017,"nx":28,"ny":28,"refTime":"2024-06-16T09:00:00:Z","depth":0,"parameterNumber":3,"parameterNumberName":"V-component_of_WINDS"},"data":[0,0,0,0,0,0,0,0,0,0,0,0,0,0,0,0,0,0,0,0,0,0,0,0,0,0,0,0,0,0,0,0,0,0,0,0,0,0,0,0,0,0,0,0,0,0,0,0,0,0,0,0,0,0,0,0,0,0,2.2768,2.2768,0,2.2796,2.2796,2.2796,2.2749,2.2747,2.2746,2.2744,2.277,2.2772,2.2774,0,0,0,0,0,0,0,0,0,0,0,0,0,2.2673,2.2675,2.2768,2.2768,2.2769,2.2796,2.2796,2.2797,2.2749,2.2747,2.2745,2.2743,2.2769,2.2772,2.2775,0,0,0,0,0,0,0,0,0,0,0,0,0,2.2709,2.2675,2.2768,2.2748,2.2747,2.2796,2.2796,2.2797,2.2749,2.2747,2.2745,2.2742,2.2769,2.2772,2.2775,2.2844,0,0,2.2785,2.2787,0,0,0,0,0,0,0,0,2.2707,2.2712,2.2751,2.275,2.2748,2.2766,2.2772,2.2812,2.275,2.2748,2.2744,2.2741,2.2771,2.2774,2.2784,2.2845,2.2846,2.2785,2.2787,2.2789,2.279,0,0,0,0,0,0,0,2.2704,2.2711,2.2779,2.2752,2.275,2.2738,2.274,2.2779,2.2773,2.2748,2.2745,2.2749,2.2769,2.2781,2.2784,2.2846,2.2785,2.2788,2.279,2.2792,2.2966,2.2968,0,0,0,0,0,0,2.2704,2.2709,2.2778,2.278,2.2721,2.2741,2.2744,2.2763,2.2772,2.2771,2.2751,2.2747,2.2777,2.2781,2.2785,2.2866,2.2789,2.2792,2.2794,2.2963,2.2966,2.2969,0,0,0,0,0,0,2.2702,2.2711,2.2777,2.2743,2.2751,2.2746,2.2767,2.2765,2.2776,2.2774,2.2773,2.2764,2.2775,2.278,2.283,2.2867,2.2793,2.2796,2.296,2.2964,2.2968,2.3029,0,0,0,0,0,0,2.27,2.2711,2.2737,2.2744,2.2753,2.2822,2.2769,2.2767,2.2782,2.2777,2.2786,2.2785,2.2773,2.2825,2.2833,2.287,2.2799,2.2956,2.2962,2.2966,2.3024,2.3035,2.3044,0,0,0,0,0,2.2697,2.2752,2.2738,2.2747,2.2786,2.2824,2.2829,2.2815,2.2786,2.2812,2.2811,2.2785,2.2862,2.2831,2.2839,2.2877,2.2954,2.296,2.2966,2.3019,2.3033,2.3044,0,0,0,0,0,0,2.2748,2.2753,2.2737,2.2797,2.2811,2.2816,2.2848,2.2829,2.285,2.2844,2.2825,2.2828,2.2881,2.2884,2.2849,2.2945,2.2903,2.2911,2.2941,2.2953,2.2963,2.2961,2.2802,0,0,0,0,0,2.2766,2.2798,2.28,2.2853,2.286,2.2854,2.2869,2.2858,2.287,2.2876,2.2878,2.2891,2.2918,2.2936,2.296,2.3025,2.3026,2.3055,2.3065,2.3074,2.3081,2.3115,2.3128,2.2989,2.2989,2.2988,0,0,2.2804,2.2811,2.2832,2.2863,2.2872,2.2905,2.2858,2.2894,2.2918,2.2881,2.2928,2.293,2.2943,2.3001,2.3026,2.3005,2.312,2.3081,2.3088,2.309,2.3123,2.3136,2.3148,2.2993,2.2992,2.2991,0,0,2.289,2.2898,2.2943,2.2954,2.2969,2.2964,2.2975,2.2983,2.2984,2.3031,2.3004,2.3032,2.3079,2.3089,2.3101,2.3193,2.317,2.3201,2.3254,2.3288,2.3299,2.3309,2.3342,2.3354,2.3208,2.3209,2.3209,0,2.2935,2.2983,2.2969,2.3007,2.3022,2.2991,2.3037,2.3047,2.3069,2.308,2.3056,2.3115,2.3122,2.3181,2.3204,2.3214,2.3226,2.32,2.3299,2.3309,2.3317,2.3349,2.3361,2.3212,2.3212,2.3211,2.3211,0,2.3038,2.3072,2.3107,2.313,2.3149,2.3191,2.3182,2.3203,2.319,2.3188,2.3237,2.3244,2.327,2.3283,2.327,2.3341,2.3328,2.3302,2.326,2.3335,2.3364,2.3376,2.3218,2.3216,2.3215,2.3214,0,0,2.3156,2.3172,2.3184,2.3195,2.321,2.3236,2.3276,2.3303,2.3321,2.3337,2.3371,2.3412,2.3389,2.3402,2.339,2.342,2.3493,2.3391,2.3391,2.341,2.3573,2.3592,2.3606,2.3479,2.3481,2.3483,2.3571,0,2.3241,2.3312,2.3301,2.3369,2.3401,2.3373,2.3408,2.3421,2.342,2.3447,2.3446,2.3475,2.3442,2.345,2.3479,2.3478,2.3526,2.3472,2.3509,2.3511,2.3507,2.3621,2.3641,2.3724,2.3583,2.3585,2.3586,0,2.335,2.3372,2.3444,2.3455,2.3468,2.35,2.3524,2.3549,2.3563,2.3561,2.3577,2.356,2.36,2.3558,2.3614,2.3577,2.3592,2.3595,2.3597,2.36,2.3553,2.3626,2.375,2.3763,2.3604,2.3602,2.3601,0,2.3428,2.3476,2.3525,2.3535,2.3549,2.3573,2.3579,2.3591,2.3608,2.3629,2.364,2.3665,2.3679,2.3698,2.3689,2.3659,2.3746,2.3703,2.3745,2.3745,2.3764,2.3763,2.3892,2.3774,2.3774,2.3774,2.3774,0,2.3525,2.357,2.3561,2.3591,2.3641,2.3628,2.3678,2.3681,2.3692,2.3722,2.3699,2.3728,2.3714,2.3742,2.3735,2.3782,2.3788,2.3787,2.3785,2.3789,2.3789,2.3798,2.3792,2.3777,2.3776,2.3776,2.3775,0,2.362,2.3616,2.3668,2.3678,2.3682,2.3718,2.3726,2.3754,2.3753,2.3792,2.38,2.3797,2.3829,2.3822,2.3856,2.3851,2.3911,2.3901,2.3906,2.3904,2.3946,2.3943,2.4086,2.4104,2.3974,2.3976,2.3977,0,2.3682,2.3716,2.373,2.375,2.3759,2.379,2.3807,2.3796,2.3815,2.3835,2.3861,2.3891,2.3914,2.3966,2.3967,2.3994,2.3984,2.4033,2.3988,2.3992,2.3985,2.3983,2.3987,2.4041,2.4043,2.4044,2.4045,0,2.3792,2.3789,2.3815,2.3842,2.3865,2.3885,2.3903,2.392,2.391,2.3933,2.3966,2.3984,2.402,2.405,2.4075,2.4081,2.4062,2.4059,2.407,2.4075,2.4077,2.4077,2.393,2.4056,2.4055,2.4054,2.4053,2.4053,2.3872,2.3902,2.3917,2.3948,2.3961,2.3978,2.4006,2.4009,2.4036,2.4065,2.4057,2.4094,2.4108,2.414,2.4149,2.4178,2.416,2.4176,2.418,2.4184,2.4189,2.4073,2.4182,2.4182,2.4182,2.4182,2.4181,0,2.3981,2.399,2.4019,2.4045,2.407,2.4051,2.407,2.4092,2.4125,2.4141,2.4165,2.4203,2.4232,2.4236,2.4264,2.4286,2.4278,2.4294,2.4292,2.4294,2.4204,2.4192,2.43,2.43,2.43,2.43,2.43,2.43,2.4041,2.409,2.4089,2.4144,2.4152,2.419,2.4202,2.4219,2.4231,2.4275,2.43,2.4303,2.4313,2.4342,2.4368,2.4369,2.438,2.4399,2.4396,2.4312,2.43,2.4289,2.4277,2.4402,2.4402,2.4484,2.4484,2.4485]}]]